Stündliche Wetter Kzyl-Yar

Heute, 8 Mai, Samstag

Zeit Temperatur Niederschläge Wind Luftdruck Luftfeuchtigkeit
00:00 +14°C° 0 mm 2 m/S 752 mmHg 62%
01:00 +14°C° 0 mm 2 m/S 752 mmHg 62%
02:00 +14°C° 0 mm 2 m/S 752 mmHg 63%
03:00 +14°C° 0 mm 1 m/S 752 mmHg 63%
04:00 +14°C° 0 mm 1 m/S 752 mmHg 65%
05:00 +14°C° 0.1 mm 1 m/S 752 mmHg 66%
06:00 +15°C° 0.1 mm 1 m/S 752 mmHg 66%
07:00 +15°C° 0.1 mm 1 m/S 752 mmHg 67%
08:00 +16°C° 0.1 mm 1 m/S 752 mmHg 61%
09:00 +17°C° 0.1 mm 2 m/S 752 mmHg 55%
10:00 +19°C° 0 mm 3 m/S 752 mmHg 47%
11:00 +19°C° 0 mm 3 m/S 752 mmHg 45%
12:00 +20°C° 0 mm 3 m/S 752 mmHg 43%
13:00 +20°C° 0 mm 3 m/S 752 mmHg 42%
14:00 +19°C° 0.1 mm 3 m/S 752 mmHg 46%
15:00 +19°C° 0.1 mm 3 m/S 752 mmHg 51%
16:00 +18°C° 0.1 mm 3 m/S 752 mmHg 56%
17:00 +18°C° 0 mm 2 m/S 752 mmHg 58%
18:00 +17°C° 0 mm 2 m/S 752 mmHg 60%
19:00 +18°C° 0 mm 1 m/S 752 mmHg 62%
20:00 +16°C° 0 mm 1 m/S 752 mmHg 66%
21:00 +14°C° 0 mm 1 m/S 752 mmHg 71%
22:00 +13°C° 0 mm 1 m/S 752 mmHg 76%
23:00 +13°C° 0 mm 1 m/S 752 mmHg 77%

Morgen, 9 Mai, Sonntag

Zeit Temperatur Niederschläge Wind Luftdruck Luftfeuchtigkeit
00:00 +12°C° 0 mm 1 m/S 752 mmHg 79%
01:00 +12°C° 0 mm 1 m/S 752 mmHg 81%
02:00 +12°C° 0 mm 1 m/S 752 mmHg 82%
03:00 +11°C° 0 mm 1 m/S 752 mmHg 83%
04:00 +11°C° 0 mm 1 m/S 752 mmHg 83%
05:00 +12°C° 0 mm 1 m/S 752 mmHg 78%
06:00 +13°C° 0 mm 1 m/S 752 mmHg 73%
07:00 +15°C° 0 mm 1 m/S 752 mmHg 69%
08:00 +17°C° 0 mm 2 m/S 752 mmHg 61%
09:00 +19°C° 0 mm 2 m/S 752 mmHg 52%
10:00 +21°C° 0 mm 3 m/S 752 mmHg 44%
11:00 +21°C° 0 mm 3 m/S 752 mmHg 41%
12:00 +22°C° 0 mm 3 m/S 752 mmHg 37%
13:00 +24°C° 0 mm 3 m/S 752 mmHg 33%
14:00 +24°C° 0 mm 3 m/S 752 mmHg 33%
15:00 +24°C° 0 mm 3 m/S 751 mmHg 32%
16:00 +25°C° 0 mm 3 m/S 751 mmHg 32%
17:00 +24°C° 0 mm 2 m/S 751 mmHg 37%
18:00 +21°C° 0 mm 2 m/S 752 mmHg 42%
19:00 +20°C° 0 mm 2 m/S 752 mmHg 47%
20:00 +19°C° 0 mm 2 m/S 752 mmHg 49%
21:00 +18°C° 0 mm 2 m/S 752 mmHg 51%
22:00 +17°C° 0 mm 2 m/S 752 mmHg 52%
23:00 +17°C° 0 mm 2 m/S 752 mmHg 53%

übermorgen, 10 Mai, Montag

Zeit Temperatur Niederschläge Wind Luftdruck Luftfeuchtigkeit
00:00 +16°C° 0 mm 2 m/S 752 mmHg 54%
01:00 +16°C° 0 mm 2 m/S 752 mmHg 55%
02:00 +16°C° 0 mm 2 m/S 753 mmHg 56%
03:00 +16°C° 0 mm 2 m/S 753 mmHg 57%
04:00 +15°C° 0 mm 2 m/S 753 mmHg 58%
05:00 +16°C° 0 mm 1 m/S 754 mmHg 58%
06:00 +18°C° 0 mm 1 m/S 754 mmHg 58%
07:00 +18°C° 0 mm 1 m/S 754 mmHg 58%
08:00 +19°C° 0 mm 2 m/S 754 mmHg 53%
09:00 +20°C° 0 mm 2 m/S 754 mmHg 48%
10:00 +22°C° 0 mm 3 m/S 755 mmHg 43%
11:00 +24°C° 0 mm 3 m/S 755 mmHg 40%
12:00 +24°C° 0 mm 2 m/S 755 mmHg 37%
13:00 +25°C° 0 mm 2 m/S 755 mmHg 35%
14:00 +25°C° 0 mm 2 m/S 755 mmHg 35%
15:00 +25°C° 0 mm 2 m/S 755 mmHg 35%
16:00 +25°C° 0 mm 1 m/S 755 mmHg 35%
17:00 +24°C° 0 mm 1 m/S 755 mmHg 41%
18:00 +23°C° 0 mm 1 m/S 755 mmHg 46%
19:00 +22°C° 0 mm 1 m/S 756 mmHg 51%
20:00 +21°C° 0 mm 1 m/S 756 mmHg 52%
21:00 +20°C° 0 mm 1 m/S 756 mmHg 53%
22:00 +19°C° 0 mm 2 m/S 757 mmHg 54%
23:00 +18°C° 0 mm 2 m/S 757 mmHg 61%

11 Mai, Dienstag

Zeit Temperatur Niederschläge Wind Luftdruck Luftfeuchtigkeit
00:00 +17°C° 0 mm 2 m/S 757 mmHg 69%
01:00 +16°C° 0 mm 2 m/S 757 mmHg 77%
02:00 +16°C° 0 mm 2 m/S 758 mmHg 79%
03:00 +16°C° 0 mm 2 m/S 758 mmHg 81%
04:00 +15°C° 0 mm 2 m/S 758 mmHg 83%
05:00 +15°C° 0 mm 2 m/S 759 mmHg 83%
06:00 +16°C° 0 mm 2 m/S 759 mmHg 82%
07:00 +16°C° 0 mm 2 m/S 759 mmHg 82%
08:00 +17°C° 0 mm 3 m/S 760 mmHg 77%
09:00 +18°C° 0 mm 3 m/S 760 mmHg 71%
10:00 +19°C° 0 mm 3 m/S 760 mmHg 65%
11:00 +20°C° 0 mm 3 m/S 760 mmHg 61%
12:00 +21°C° 0 mm 3 m/S 760 mmHg 58%
13:00 +23°C° 0 mm 2 m/S 760 mmHg 54%
14:00 +24°C° 0 mm 3 m/S 760 mmHg 52%
15:00 +24°C° 0 mm 3 m/S 760 mmHg 50%
16:00 +25°C° 0 mm 4 m/S 760 mmHg 49%
17:00 +24°C° 0 mm 3 m/S 760 mmHg 54%
18:00 +21°C° 0 mm 3 m/S 760 mmHg 60%
19:00 +20°C° 0 mm 3 m/S 761 mmHg 65%
20:00 +19°C° 0 mm 3 m/S 761 mmHg 69%
21:00 +17°C° 0 mm 3 m/S 761 mmHg 73%
22:00 +16°C° 0 mm 2 m/S 761 mmHg 77%
23:00 +15°C° 0 mm 2 m/S 761 mmHg 75%

12 Mai, Mittwoch

Zeit Temperatur Niederschläge Wind Luftdruck Luftfeuchtigkeit
00:00 +14°C° 0 mm 2 m/S 762 mmHg 74%
01:00 +13°C° 0 mm 2 m/S 762 mmHg 73%
02:00 +13°C° 0 mm 2 m/S 762 mmHg 71%
03:00 +12°C° 0 mm 2 m/S 762 mmHg 70%
04:00 +12°C° 0 mm 2 m/S 762 mmHg 69%
05:00 +12°C° 0 mm 2 m/S 762 mmHg 67%
06:00 +13°C° 0 mm 2 m/S 762 mmHg 65%
07:00 +13°C° 0 mm 3 m/S 762 mmHg 63%
08:00 +16°C° 0 mm 3 m/S 762 mmHg 56%
09:00 +18°C° 0 mm 3 m/S 762 mmHg 50%
10:00 +19°C° 0 mm 4 m/S 762 mmHg 43%
11:00 +20°C° 0 mm 4 m/S 762 mmHg 40%
12:00 +21°C° 0 mm 4 m/S 762 mmHg 36%
13:00 +22°C° 0 mm 4 m/S 762 mmHg 33%
14:00 +22°C° 0 mm 4 m/S 761 mmHg 32%
15:00 +23°C° 0 mm 4 m/S 761 mmHg 32%
16:00 +23°C° 0 mm 4 m/S 761 mmHg 32%
17:00 +22°C° 0 mm 4 m/S 761 mmHg 39%
18:00 +21°C° 0 mm 3 m/S 761 mmHg 46%
19:00 +20°C° 0 mm 3 m/S 761 mmHg 52%
20:00 +18°C° 0 mm 2 m/S 761 mmHg 57%
21:00 +17°C° 0 mm 2 m/S 761 mmHg 62%
22:00 +15°C° 0 mm 2 m/S 761 mmHg 67%
23:00 +15°C° 0 mm 2 m/S 761 mmHg 69%

13 Mai, Donnerstag

Zeit Temperatur Niederschläge Wind Luftdruck Luftfeuchtigkeit
00:00 +14°C° 0 mm 2 m/S 761 mmHg 71%
01:00 +14°C° 0 mm 2 m/S 761 mmHg 73%
02:00 +14°C° 0 mm 2 m/S 761 mmHg 74%
03:00 +13°C° 0 mm 2 m/S 760 mmHg 76%
04:00 +13°C° 0 mm 2 m/S 760 mmHg 78%
05:00 +14°C° 0 mm 2 m/S 760 mmHg 74%
06:00 +15°C° 0 mm 2 m/S 761 mmHg 71%
07:00 +16°C° 0 mm 3 m/S 761 mmHg 67%
08:00 +18°C° 0 mm 3 m/S 761 mmHg 60%
09:00 +20°C° 0 mm 3 m/S 761 mmHg 54%
10:00 +22°C° 0 mm 4 m/S 761 mmHg 47%
11:00 +25°C° 0 mm 4 m/S 760 mmHg 44%
12:00 +26°C° 0 mm 3 m/S 760 mmHg 41%
13:00 +27°C° 0 mm 3 m/S 760 mmHg 38%
14:00 +27°C° 0 mm 3 m/S 760 mmHg 36%
15:00 +27°C° 0 mm 2 m/S 760 mmHg 34%
16:00 +28°C° 0 mm 2 m/S 760 mmHg 33%
17:00 +27°C° 0 mm 2 m/S 760 mmHg 38%
18:00 +26°C° 0 mm 2 m/S 760 mmHg 43%
19:00 +25°C° 0 mm 2 m/S 760 mmHg 49%
20:00 +23°C° 0 mm 1 m/S 760 mmHg 53%
21:00 +21°C° 0 mm 1 m/S 760 mmHg 57%
22:00 +20°C° 0 mm 1 m/S 760 mmHg 62%
23:00 +19°C° 0 mm 1 m/S 760 mmHg 63%
Mehr zeigen

Wir brauchen deine Erlaubnis

Meteoprog und unser Service Anbieter werden persönliche Daten aufbewahren, so wie Cookies, Geräte Bezeichnung oder ähnliche Technologien von deinem Gerät und Prozess, so wie Persönliche Daten Inhalte und Werbungen, genauso wie social Media und den Verkehr zu analysieren.

  • Aufbewahrung und/oder Zugang zu deiner Geräte Informationen.

    Cookies, Geräte Bezeichnung oder andere Informationen, können aufbewahrt oder Zugang zu deinem Gerät erhalten, für den Grund, der oben angegeben wird.

  • Personalisierte Werbung und Inhalte, Messungen, Einblick in das Publikum und Produkt Entwicklung.

    Werbungen und Inhalte können personalisiert werden, basierend auf ein Profil. Mehr Daten können besser personalisierte Werbungen und Inhalte hinzufügen. Werbung und Inhalte können gezeigt und gemessen werden. Einblicke über das Publikum, welche die Werbung gesehen haben und den Inhalt, können abgeleitet werden. So wie Daten können genutzt werden, um es zu verbessern oder die Benutzer Erfahrung zu verbessern das System und die Software.

Wenn du “Ich stimme zu” klickst, erlaubst du uns, die Cookies zu benutzen die Geräte Bezeichnung, den Web oder ähnliche Technologien zu benutzen. Deine Settings, können in deinem Gerät bei deinem Browser geändert werden.

Für den bestimmten Zweck, berechtigten Interessen beruhen darauf, mehr als auf den Inhalt. Du kannst mehr darüber in unseren Privaten und Cookie Politik lesen.